DW7187 Weather Reports


time (UTC)temp
C
wind
direction
speed
KPH
gust
KPH
rain 1hr
cm
rain 24hr
cm
rain mn
cm
humidity
%
barometer
mb
20260510104036 8 23 1.6 6.4 0.00 0.97 0.03 87 1012.6
20260510103016 8 45 3.2 9.7 0.00 0.97 0.03 87 1012.2
20260510102036 8 0 1.6 8.0 0.00 0.99 0.03 88 1012.1
20260510101016 8 0.0 0.0 0.00 0.99 0.03 88 1011.9
20260510100036 8 45 1.6 6.4 0.00 0.99 0.03 88 1012.0
20260510095016 8 68 1.6 6.4 0.00 1.02 0.03 89 1012.0
20260510094017 8 45 1.6 4.8 0.00 1.02 0.03 89 1011.8
20260510093016 8 0.0 0.0 0.00 1.02 0.03 90 1011.7
20260510092016 8 0.0 0.0 0.00 1.02 0.03 91 1011.3
20260510091016 8 0.0 0.0 0.00 1.02 0.03 91 1011.1
20260510090017 8 0.0 3.2 0.00 1.04 0.03 92 1010.9
20260510085016 8 0.0 3.2 0.00 1.07 0.03 92 1010.7
20260510084017 8 0.0 0.0 0.00 1.07 0.03 92 1010.5
20260510083016 8 23 1.6 6.4 0.00 1.09 0.03 92 1010.4
20260510082038 9 23 1.6 6.4 0.00 1.12 0.03 93 1010.4
20260510081016 9 0 4.8 8.0 0.00 1.17 0.03 95 1010.4
20260510080016 10 23 3.2 8.0 0.00 1.19 0.03 96 1010.4
20260510075016 10 23 4.8 11.3 0.00 1.22 0.03 97 1010.3
20260510074016 10 23 3.2 9.7 0.00 1.27 0.03 97 1010.1
20260510073016 11 45 1.6 9.7 0.00 1.30 0.03 98 1010.1
20260510072016 11 23 1.6 8.0 0.00 1.35 0.03 98 1009.8
20260510071016 11 0 4.8 11.3 0.00 1.40 0.03 98 1009.6
20260510070114 11 0.0 6.4 0.00 1.42 0.03 98 1009.3
20260510065036 11 0.0 4.8 0.00 1.47 0.03 98 1009.2
20260510064016 11 0.0 0.0 0.00 1.50 0.03 98 1009.0
20260510063036 11 0.0 1.6 0.00 1.52 0.03 98 1009.0
20260510062016 11 0.0 0.0 0.00 1.55 0.03 98 1009.0
20260510061016 11 0.0 0.0 0.00 1.60 0.03 98 1008.8
20260510060016 11 0.0 1.6 0.00 1.63 0.03 98 1008.8
20260510055016 11 0.0 6.4 0.00 1.65 0.03 98 1008.8
20260510054036 11 0.0 0.0 0.00 1.68 0.03 98 1008.7
20260510053016 11 0.0 0.0 0.00 1.70 0.03 98 1008.6
20260510052016 11 0.0 0.0 0.00 1.70 0.03 98 1008.4
20260510051016 11 0.0 0.0 0.03 1.73 0.03 98 1008.5
20260510050036 11 0.0 0.0 0.03 1.75 0.03 98 1008.5
20260510045016 11 0.0 0.0 0.03 1.78 0.03 98 1008.2
20260510044016 11 0.0 0.0 0.03 1.80 0.03 98 1008.0
20260510043016 11 0.0 0.0 0.03 1.80 0.03 98 1008.2
20260510042016 11 0.0 0.0 0.05 1.83 0.03 97 1008.2
20260510041016 12 0.0 0.0 0.03 1.83 0.00 97 1008.2
20260510040036 12 0.0 0.0 0.03 1.85 1.85 98 1008.1
20260510035017 12 0.0 0.0 0.05 1.91 1.85 98 1008.0
20260510034037 12 0 6.4 16.1 0.05 1.91 1.85 98 1008.4
20260510033017 12 0.0 3.2 0.05 1.91 1.85 98 1007.7
20260510032017 12 0.0 0.0 0.03 1.88 1.83 98 1007.5
20260510031017 12 0.0 1.6 0.05 1.88 1.83 98 1007.9
20260510030017 12 0.0 4.8 0.05 1.88 1.83 98 1007.8
20260510025017 12 0.0 4.8 0.05 1.85 1.80 98 1008.2
20260510024017 12 0.0 0.0 0.08 1.85 1.80 98 1008.2
20260510023017 12 0.0 0.0 0.10 1.88 1.80 98 1007.8
20260510022037 12 0.0 0.0 0.13 1.88 1.80 98 1007.4
20260510021037 12 0.0 1.6 0.13 1.88 1.78 98 1007.1
20260510020017 12 0.0 1.6 0.15 1.88 1.78 97 1007.1
20260510014017 12 0.0 0.0 0.18 1.83 1.73 97 1006.7
20260510013017 12 0.0 0.0 0.20 1.83 1.70 97 1006.6
20260510012017 12 0.0 0.0 0.23 1.80 1.68 97 1006.5
20260510011017 12 0.0 0.0 0.28 1.80 1.65 97 1006.4
20260510010017 12 0.0 1.6 0.33 1.78 1.63 96 1006.3
20260510005017 12 0.0 0.0 0.41 1.78 1.60 96 1006.5
20260510004017 12 0.0 0.0 0.48 1.73 1.55 96 1006.6
20260510003018 12 0.0 0.0 0.58 1.70 1.50 95 1006.4
20260510002017 12 0.0 1.6 0.53 1.65 1.45 95 1006.4
20260510001017 12 293 4.8 9.7 0.46 1.57 1.37 94 1006.9
20260510000037 12 293 3.2 14.5 0.38 1.52 1.30 93 1006.8
20260509235017 13 338 6.4 22.5 0.28 1.45 1.19 92 1006.6
20260509234017 13 0 9.7 25.7 0.15 1.35 1.07 89 1006.5
20260509233037 17 0 4.8 20.9 0.00 1.24 0.91 73 1006.2
20260509232037 18 203 3.2 12.9 0.00 1.27 0.91 68 1005.4
20260509231037 18 203 1.6 14.5 0.00 1.27 0.91 67 1004.8
20260509230058 19 203 1.6 17.7 0.00 1.27 0.91 66 1004.7
20260509225037 19 180 3.2 12.9 0.00 1.27 0.91 66 1004.6
20260509224017 20 203 4.8 19.3 0.00 1.27 0.91 64 1004.5
20260509223017 20 203 8.0 22.5 0.00 1.27 0.91 63 1004.5
20260509222017 20 203 8.0 25.7 0.00 1.27 0.91 64 1004.6
20260509221017 20 203 6.4 22.5 0.00 1.27 0.91 62 1004.5
20260509220016 20 203 4.8 22.5 0.00 1.27 0.91 61 1004.7
20260509215016 20 180 4.8 16.1 0.00 1.27 0.91 62 1004.7
20260509214016 20 180 6.4 20.9 0.00 1.27 0.91 62 1004.6
20260509213017 20 180 3.2 16.1 0.00 1.27 0.91 64 1004.6
20260509212037 20 203 4.8 19.3 0.00 1.27 0.91 62 1004.9
20260509211017 20 203 4.8 30.6 0.00 1.27 0.91 63 1004.9
20260509210017 20 203 8.0 27.4 0.00 1.27 0.91 63 1005.1
20260509205017 20 180 4.8 19.3 0.00 1.27 0.91 65 1005.5
20260509204017 21 203 1.6 6.4 0.00 1.27 0.91 64 1005.6
20260509203016 20 203 4.8 17.7 0.00 1.27 0.91 66 1005.5
20260509202016 20 203 4.8 17.7 0.00 1.27 0.91 67 1005.7
20260509201016 20 203 8.0 24.1 0.00 1.30 0.91 65 1005.9
20260509200016 19 203 6.4 16.1 0.00 1.32 0.91 68 1006.1
20260509195016 19 180 4.8 22.5 0.00 1.32 0.91 71 1006.2
20260509194016 19 180 6.4 14.5 0.00 1.35 0.91 69 1006.3
20260509193016 20 180 4.8 22.5 0.00 1.40 0.91 70 1006.3
20260509192036 19 180 4.8 12.9 0.00 1.40 0.91 69 1006.5
20260509191016 18 203 4.8 11.3 0.00 1.40 0.91 71 1006.6
20260509190037 18 203 1.6 16.1 0.00 1.40 0.91 71 1006.6
20260509185016 19 180 3.2 20.9 0.00 1.40 0.91 71 1006.6
20260509184016 19 225 4.8 22.5 0.00 1.40 0.91 70 1006.5
20260509183016 19 180 3.2 12.9 0.00 1.40 0.91 71 1006.5
20260509182016 19 203 6.4 24.1 0.00 1.40 0.91 70 1006.7
20260509181016 19 203 3.2 11.3 0.00 1.42 0.91 72 1006.9
20260509180056 18 225 3.2 11.3 0.00 1.45 0.91 71 1006.8
20260509175016 18 203 3.2 20.9 0.00 1.47 0.91 75 1006.9
20260509174016 18 248 3.2 12.9 0.00 1.47 0.91 75 1006.9
20260509173016 18 180 4.8 16.1 0.00 1.47 0.91 76 1006.9
20260509172017 17 203 6.4 16.1 0.00 1.47 0.91 76 1006.9
20260509171016 18 225 1.6 4.8 0.00 1.47 0.91 77 1006.8
20260509170016 17 203 4.8 16.1 0.00 1.47 0.91 75 1006.8
20260509165016 17 203 3.2 12.9 0.00 1.47 0.91 73 1006.9
20260509164016 17 248 1.6 8.0 0.00 1.47 0.91 77 1007.3
20260509163016 17 203 1.6 6.4 0.00 1.50 0.91 80 1007.3
20260509162016 16 180 1.6 4.8 0.00 1.50 0.91 82 1007.2
20260509161016 16 203 3.2 11.3 0.00 1.50 0.91 82 1007.1
20260509160016 17 225 1.6 6.4 0.00 1.50 0.91 83 1007.3
20260509155016 16 248 1.6 6.4 0.00 1.50 0.91 85 1007.3
20260509154036 16 203 1.6 8.0 0.00 1.50 0.91 90 1007.3
20260509153036 15 225 1.6 6.4 0.00 1.50 0.91 91 1007.2
20260509152036 15 203 1.6 11.3 0.00 1.50 0.91 92 1007.3
20260509151016 15 203 1.6 9.7 0.00 1.50 0.91 94 1007.1
20260509150016 14 203 1.6 6.4 0.00 1.50 0.91 96 1007.1
20260509145016 13 203 3.2 11.3 0.00 1.50 0.91 97 1006.8
20260509144016 14 203 3.2 11.3 0.00 1.50 0.91 98 1006.9
20260509143016 13 203 1.6 9.7 0.00 1.50 0.91 99 1006.9
20260509142016 12 180 1.6 9.7 0.00 1.50 0.91 99 1006.8
20260509141016 12 203 1.6 6.4 0.00 1.50 0.91 99 1006.9
20260509140016 12 180 3.2 9.7 0.00 1.50 0.91 99 1006.7
20260509135016 12 203 3.2 12.9 0.00 1.50 0.91 99 1006.7
20260509134016 12 180 1.6 8.0 0.00 1.50 0.91 99 1006.7
20260509133016 12 0.0 6.4 0.00 1.50 0.91 100 1006.8
20260509132017 12 180 3.2 11.3 0.00 1.50 0.91 100 1006.8
20260509131016 11 158 1.6 8.0 0.00 1.50 0.91 99 1006.9
20260509130016 11 0.0 4.8 0.00 1.50 0.91 99 1007.0
20260509125016 11 203 1.6 9.7 0.00 1.50 0.91 100 1007.1
20260509124017 11 203 1.6 8.0 0.00 1.50 0.91 100 1007.2
20260509123016 11 203 1.6 4.8 0.00 1.50 0.91 99 1007.2
20260509122016 11 180 1.6 8.0 0.00 1.50 0.91 100 1007.2
20260509121016 11 0.0 0.0 0.00 1.50 0.91 100 1007.2
20260509120016 11 0.0 0.0 0.00 1.50 0.91 100 1007.3
20260509115057 11 0.0 0.0 0.00 1.50 0.91 100 1007.3
20260509114016 11 0.0 0.0 0.00 1.50 0.91 99 1007.3
20260509113016 11 0.0 3.2 0.00 1.50 0.91 99 1007.2
20260509112016 11 0.0 4.8 0.03 1.50 0.91 99 1007.2
20260509111016 11 0.0 1.6 0.03 1.50 0.91 99 1007.0
20260509110016 11 0.0 0.0 0.03 1.50 0.91 99 1007.0
20260509105016 11 0.0 0.0 0.05 1.50 0.91 99 1007.1